Tracking 20040 objects as of 19-Nov-2019
Live streaming from Space Station
objects crossing your sky now

COSMOS 1711 (GLONASS)

Track COSMOS 1711 (GLONASS) now!
COSMOS 1711 (GLONASS) is classified as:


NORAD ID: 16397
Int'l Code: 1985-118B
Perigee: 19,112.5 km
Apogee: 19,161.7 km
Inclination: 66.1 °
Period: 675.7 minutes
Semi major axis: 25508 km
RCS: 0.7803 m2 (medium)
Launch date: December 24, 1985
Source: Commonwealth of Independent States (former USSR) (CIS)
Launch site: TYURATAM MISSILE AND SPACE COMPLEX (TTMTR)
aabbcc
Your satellite tracking list
Your tracking list is empty




NASA's NSSDC Master Catalog

Two Line Element Set (TLE):
1 16397U 85118B   19321.34424425 -.00000040 +00000-0 +00000-0 0  9998
2 16397 066.1118 043.5342 0009644 198.4312 157.9539 02.13101715263521
Source of the keplerian elements: AFSPC